Hourly Data Report for September 01, 2017

All times are specified in Local Standard Time (LST). Add 1 hour to adjust for Daylight Saving Time where and when it is observed.

MIRAMICHI RCS
NEW BRUNSWICK

47°00'34.000" N
65°27'54.000" W
33.00 m
8100989
71744
ACQ

Download Data

Hourly Data (September 2017)
Hourly Data Report for September 1, 2017
Temp Definition
°C
Dew Point Temp Definition
°C
Rel Hum Definition
%
Wind Dir Definition
10's deg

Wind Spd Definition
km/h
Visibility Definition
km
Stn Press Definition
kPa
Hmdx Definition


Wind Chill Definition


Weather Definition


TIME
00:00 10.5 5.5 71 28 13   100.01     LegendNANA
01:00 9.2 5.2 76 27 9   100.03     LegendNANA
02:00 7.4 4.6 82 20 8   100.00     LegendNANA
03:00 7.0 4.9 87 26 7   99.99     LegendNANA
04:00 6.6 5.0 89 19 6   100.02     LegendNANA
05:00 6.8 5.4 91 24 8   100.02     LegendNANA
06:00 7.0 5.9 93 25 9   100.07     LegendNANA
07:00 8.9 5.7 80 25 9   100.10     LegendNANA
08:00 10.8 4.9 67 26 20   100.11     LegendNANA
09:00 11.8 4.1 59 26 22   100.11     LegendNANA
10:00 11.9 5.7 65 28 19   100.11     LegendNANA
11:00 12.0 6.7 70 28 16   100.07     LegendNANA
12:00 13.3 5.8 60 27 18   100.04     LegendNANA
13:00 13.3 4.1 54 25 26   100.07     LegendNANA
14:00 13.5 3.3 50 27 28   100.08     LegendNANA
15:00 12.5 4.0 56 26 22   100.10     LegendNANA
16:00 12.3 4.9 61 27 17   100.11     LegendNANA
17:00 11.9 6.0 67 26 14   100.16     LegendNANA
18:00 10.8 8.4 85 26 9   100.24     LegendNANA
19:00 10.2 8.1 87 27 7   100.31     LegendNANA
20:00 11.2 7.8 80 29 14   100.41     LegendNANA
21:00 11.2 7.4 77 30 13   100.48     LegendNANA
22:00 10.3 6.6 78 30 12   100.55     LegendNANA
23:00 9.4 6.5 82 28 12   100.60     LegendNANA

Notes on Data Quality.

Legend

  • E = Estimated
  • M = Missing
  • NA = Not Available
  • ‡ = Partner data that is not subject to review by the National Climate Archives
Date modified: